Overview Statistics Trail Chart Weather Telemetry Raw packets
 

This is the latest recevied weather packets stored in our database for station/object N0NB. If no packets are shown the sender has not sent any weather packets the latest 10 day(s).

<< 5 6 7 8 9 10 11 >>
Time Temp. Humidity Pressure Rain* Wind** Luminosity Snow
1788554717 35.56° C 55% 1011.1 hPa 0 mm - 623 W/m² -
1788554117 35.56° C 54% 1011.2 hPa 0 mm - 635 W/m² -
1788553517 35.56° C 58% 1011.4 hPa 0 mm - 647 W/m² -
1788552917 35° C 57% 1011.4 hPa 0 mm - 660 W/m² -
1788552317 35° C 58% 1011.4 hPa 0 mm - 673 W/m² -
1788551717 35° C 57% 1011.4 hPa 0 mm - 688 W/m² -
1788551117 35° C 55% 1011.5 hPa 0 mm - 699 W/m² -
1788550517 35° C 56% 1011.6 hPa 0 mm - 710 W/m² -
1788549917 34.44° C 57% 1011.6 hPa 0 mm - 720 W/m² -
1788549317 34.44° C 57% 1011.7 hPa 0 mm - 725 W/m² -
1788548717 34.44° C 58% 1011.8 hPa 0 mm - 729 W/m² -
1788548116 34.44° C 59% 1012 hPa 0 mm - 736 W/m² -
1788547516 33.89° C 61% 1012.1 hPa 0 mm - 736 W/m² -
1788546917 33.89° C 61% 1012.1 hPa 0 mm - 737 W/m² -
1788546317 33.89° C 62% 1012.2 hPa 0 mm - 737 W/m² -
1788545716 33.89° C 63% 1012.2 hPa 0 mm - 735 W/m² -
1788545116 33.33° C 63% 1012.2 hPa 0 mm - 732 W/m² -
1788544516 33.33° C 63% 1012.2 hPa 0 mm - 726 W/m² -
1788543916 32.78° C 64% 1012.3 hPa 0 mm - 721 W/m² -
1788543316 32.78° C 65% 1012.2 hPa 0 mm - 713 W/m² -
1788542716 32.22° C 66% 1012.1 hPa 0 mm - 705 W/m² -
1788542116 32.22° C 67% 1012.1 hPa 0 mm - 696 W/m² -
1788541516 31.67° C 68% 1012.1 hPa 0 mm - 684 W/m² -
1788540917 31.67° C 68% 1012.1 hPa 0 mm - 669 W/m² -
1788540316 31.67° C 68% 1012 hPa 0 mm - 656 W/m² -

* Rain latest hour (hover to see other rain measurements)
** Current wind speed in m/s (hover to see current wind gust speed)